sat.trackr.live / text

‹ back to catalog

KUIPER-00301

NORAD 68598 · 2026-072AB

PAYLOAD ACTIVE UNKNOWN

§ Identity

Operator
Country
US
Launch date
2026-04-04
Launch site
AFETR
Launch vehicle
Mass (kg)
RCS (m²)

External: N2YO · Heavens-Above · Gunter

§ Orbital elements

Epoch: 2026-09-20T00:47:47.692032Z

Period
97.53 min
Inclination
51.9017°
Eccentricity
0.0001877
Mean motion
14.76502916 rev/d
Perigee alt
639.1 km
Apogee alt
641.7 km
Semi-major
7,018.5 km
B*
2.0264e-4
RAAN
95.7818°
Arg perigee
193.9033°
Mean anomaly
166.1876°
Rev number
2,572

§ Raw data

KUIPER-003011 68598U 26072AB  26263.03319088  .00001210  00000+0  20264-3 0  99942 68598  51.9017  95.7818 0001877 193.9033 166.1876 14.76502916 25722

JSON: /api/v1/satellites/68598 · /tle

For live sub-satellite position, see the globe view (requires WebGL).

§ Visibility from observer

Set your observer location to see the next 7 days of passes ≥ 10°. The values pass through the URL so the page stays shareable.

No JS? Fill the form by hand. The geolocation button needs JavaScript.